Showing default

KUIPER-00285, 68589

Orbit data source: Space-Track

KUIPER-00285, 68589 is a payload satellite owned by Kuiper Systems (US) in LEO that was launched on Sat, 04 Apr 2026 UTC via an ATLAS V 551 launch vehicle from the Air Force Eastern Test Range (AFETR). Payload-class satellites include a variety of spacecraft equipped with specific instruments for various scientific and technological missions. These include communications satellites like Starlink; space stations such as the ISS; scientific satellites like the Hubble; Earth observation satellites from companies like Planet Labs, Umbra, and HawkEye 360; GPS; miniature CubeSats for education and research; and military/defense satellites.

Loading next visibility...
Identifier
68589, 2026-072S
Orbit
LEO
Country
Flag of USUS
Related business
Manufacturer
Kuiper Systems
Mission
Operational spacecraft
Bus & Motor
KUIPER, Unknown motor
Mass
~490 kg wet, ~490 kg dry
Launch date (UTC)
2026-04-04 (2 months ago)
Launch vehicle
ATLAS V 551
Launch site
Air Force Eastern Test Range (AFETR)
Object type
Payload
Rocket body
Debris
Shape & HBR
Unknown shape, 3.4 m
Radar Cross Section
Large (>1 m²)

Expand to show TLE details & history
Last TLE update: 5 days ago

TLE from 5 days ago
0 KUIPER-00285
1 68589U 26072S   26154.86910042  .00039859  00000-0  10289-2 0  9997
2 68589  51.8727 241.1716 0006820 328.1116  31.9458 15.38737695  9337
Epoch: 2026-06-03T20:51Z
TLE epoch observation values (Epoch: 2026-06-03T20:51:30.276Z)
Latitude
0.00002°
Longitude
35.97393°
Altitude
446.654 km
Speed
7.648 km/s
True Right ascension
16h 04m 41s
True Declination
0° 00' 00"
Sunlit
Object was in full shadow at epoch
Visualization orbit readout
Latitude
Unknown
Longitude
Unknown
Altitude
Unknown
Speed
Unknown
Apparent Right ascension
Unknown
Apparent Declination
Unknown
Sunlit
N/A
Visualization observer readout
Local Sidereal Time
18:53:03
Azimuth
Unknown
Elevation
Unknown
Doppler factor
Unknown
Orbital elements
Apogee altitude
454.965 km
Perigee altitude
445.651 km
Semi-major axis
6,828.445 km
Eccentricity
0.00068
Inclination
51.8727°
RAAN
241.1716°
Arg. of periapsis
328.1116°
True anomaly
31.98718°
Mean anomaly
31.9458°
Eccentric anomaly
31.96649°
Mean motion
3.84645 °/min
Orbital period
93.59 mins
BSTAR
0.0010289
Loading maneuver chart data...
Computing Atmospheric mass density...
Loading historical data...
Loading historical data...
Loading historical data...
Loading historical data...
Loading historical data...
Loading historical data...
Loading historical data...

Documentation

Showing up to 5 results
|